Sioux Falls, SD

1:02 AM CDT on July 24, 2017 (GMT -0500)
Foss

Weather History for KFSD - July, 2013

Change the Weather History Date:

Friday, July 12, 2013

  Actual Average Record
Temperature  
Mean Temperature 80 °F 73 °F  
Max Temperature 91 °F 84 °F 107 °F (1995)
Min Temperature 68 °F 62 °F 48 °F (1975)
Degree Days  
Heating Degree Days 0 0  
Month to date heating degree days 0 0  
Since 1 June heating degree days 69 51  
Since 1 July heating degree days 0 0  
Cooling Degree Days 15 8  
Month to date cooling degree days 108 95  
Year to date cooling degree days 286 266  
Since 1 June cooling degree days 244 230  
Growing Degree Days 30 (Base 50)    
Moisture  
Dew Point 66 °F    
Average Humidity 63    
Maximum Humidity 76    
Minimum Humidity 48    
Precipitation  
Precipitation 0.00 in 0.10 in 1.56 in (1908)
Month to date precipitation 0.25 1.24  
Year to date precipitation 16.84 14.49  
Snow  
Snow 0.00 in 0.00 in 0.00 in ()
Month to date snowfall 0.0 0.0  
Since 1 June snowfall 0.0 0.0  
Since 1 July snowfall 0.0 0.0  
Snow Depth 0.00 in    
Sea Level Pressure  
Sea Level Pressure 29.87 in    
Wind  
Wind Speed 16 mph (South)    
Max Wind Speed 29 mph    
Max Gust Speed 38 mph    
Visibility 10 miles    
Events      
T = Trace of Precipitation, MM = Missing Value Source: NWS Daily Summary

Daily Weather History Graph

Daily Weather History Graph

Search for Another Location

Airport or City:

Trip Planner

Search our weather history database for the weather conditions in past years. The results will help you decide how hot, cold, wet, or windy it might be!

Date:

Astronomy

Jul. 12, 2013 Rise Set
Actual Time 5:57 AM CDT 9:07 PM CDT
Civil Twilight 5:22 AM CDT 9:42 PM CDT
Nautical Twilight 4:37 AM CDT 10:27 PM CDT
Astronomical Twilight 3:42 AM CDT 11:21 PM CDT
Moon 10:24 AM CDT (7/12) 11:08 PM CDT (7/12)
Length of Visible Light 16h 20m
Length of Day
15h 10m
Waxing Crescent, 17% of the Moon is Illuminated
Jul 12
Waxing Crescent
Jul 15
First Quarter
Jul 22
Full
Jul 29
Last Quarter
Aug 6
New

Hourly Weather History & Observations

Time (CDT) Temp. Heat Index Dew Point Humidity Pressure Visibility Wind Dir Wind Speed Gust Speed Precip Events Conditions
12:56 AM 73.9 °F - 62.1 °F 66% 29.93 in 10.0 mi South 13.8 mph - N/A   Clear
1:56 AM 73.0 °F - 61.0 °F 66% 29.93 in 10.0 mi South 13.8 mph 23.0 mph N/A   Clear
2:56 AM 72.0 °F - 61.0 °F 68% 29.91 in 10.0 mi South 13.8 mph 21.9 mph N/A   Clear
3:56 AM 71.1 °F - 60.1 °F 68% 29.92 in 10.0 mi South 12.7 mph - N/A   Clear
4:56 AM 69.1 °F - 60.1 °F 73% 29.91 in 10.0 mi South 9.2 mph 19.6 mph N/A   Partly Cloudy
5:56 AM 68.0 °F - 60.1 °F 76% 29.91 in 10.0 mi South 11.5 mph - N/A   Partly Cloudy
6:56 AM 69.1 °F - 60.1 °F 73% 29.91 in 10.0 mi SSE 9.2 mph - N/A   Scattered Clouds
7:56 AM 70.0 °F - 61.0 °F 73% 29.91 in 10.0 mi South 10.4 mph - N/A   Partly Cloudy
8:56 AM 73.9 °F - 61.0 °F 64% 29.89 in 10.0 mi South 19.6 mph 28.8 mph N/A   Clear
9:56 AM 77.0 °F - 63.0 °F 62% 29.89 in 10.0 mi South 19.6 mph 28.8 mph N/A   Clear
10:56 AM 79.0 °F - 64.9 °F 62% 29.87 in 10.0 mi South 18.4 mph 29.9 mph N/A   Clear
11:56 AM 82.0 °F 84.5 °F 66.9 °F 60% 29.86 in 10.0 mi South 18.4 mph 26.5 mph N/A   Partly Cloudy
12:56 PM 84.0 °F 87.0 °F 68.0 °F 58% 29.84 in 10.0 mi South 24.2 mph 32.2 mph N/A   Partly Cloudy
1:56 PM 87.1 °F 92.0 °F 70.0 °F 57% 29.83 in 10.0 mi South 19.6 mph 33.4 mph N/A   Partly Cloudy
2:56 PM 90.0 °F 94.5 °F 69.1 °F 50% 29.83 in 10.0 mi South 21.9 mph 29.9 mph N/A   Partly Cloudy
3:56 PM 90.0 °F 95.4 °F 70.0 °F 52% 29.81 in 10.0 mi South 24.2 mph 33.4 mph N/A   Partly Cloudy
4:56 PM 91.0 °F 97.6 °F 71.1 °F 52% 29.81 in 10.0 mi South 18.4 mph 32.2 mph N/A   Partly Cloudy
5:56 PM 89.1 °F 94.1 °F 70.0 °F 53% 29.80 in 10.0 mi South 21.9 mph 33.4 mph N/A   Scattered Clouds
6:56 PM 88.0 °F 93.8 °F 71.1 °F 57% 29.80 in 10.0 mi South 20.7 mph 32.2 mph N/A   Scattered Clouds
7:56 PM 86.0 °F 91.5 °F 71.1 °F 61% 29.82 in 10.0 mi South 20.7 mph 28.8 mph N/A   Scattered Clouds
8:56 PM 84.0 °F 89.0 °F 71.1 °F 65% 29.82 in 10.0 mi South 17.3 mph 24.2 mph N/A   Scattered Clouds
9:56 PM 82.9 °F 87.0 °F 70.0 °F 65% 29.83 in 10.0 mi South 15.0 mph 23.0 mph N/A   Scattered Clouds
10:56 PM 81.0 °F 84.4 °F 70.0 °F 69% 29.84 in 10.0 mi South 15.0 mph 23.0 mph N/A   Scattered Clouds
11:56 PM 80.1 °F 82.9 °F 69.1 °F 69% 29.87 in 10.0 mi South 10.4 mph - N/A   Scattered Clouds